Hourly Weather Lukovychi

Today, 18 May, Tuesday

Time Temperature Precipitation Wind Pressure Humidity
00:00 +12°C° 0 mm 1 mps 733 mmHg 85%
01:00 +11°C° 0 mm 0 mps 733 mmHg 86%
02:00 +11°C° 0 mm 0 mps 732 mmHg 89%
03:00 +12°C° 0 mm 1 mps 732 mmHg 90%
04:00 +12°C° 0 mm 1 mps 732 mmHg 91%
05:00 +12°C° 0 mm 1 mps 731 mmHg 93%
06:00 +13°C° 0.3 mm 1 mps 732 mmHg 90%
07:00 +14°C° 0.3 mm 1 mps 732 mmHg 88%
08:00 +16°C° 0 mm 1 mps 732 mmHg 84%
09:00 +16°C° 0.7 mm 2 mps 732 mmHg 80%
10:00 +17°C° 0.7 mm 2 mps 732 mmHg 75%
11:00 +18°C° 0.7 mm 3 mps 732 mmHg 71%
12:00 +18°C° 0.9 mm 4 mps 732 mmHg 73%
13:00 +18°C° 0.9 mm 4 mps 732 mmHg 75%
14:00 +17°C° 0.9 mm 5 mps 732 mmHg 78%
15:00 +16°C° 0.6 mm 5 mps 732 mmHg 79%
16:00 +16°C° 0.6 mm 5 mps 732 mmHg 80%
17:00 +15°C° 0.6 mm 5 mps 732 mmHg 81%
18:00 +14°C° 0.3 mm 5 mps 733 mmHg 84%
19:00 +13°C° 0.3 mm 5 mps 733 mmHg 87%
20:00 +13°C° 0.3 mm 4 mps 733 mmHg 89%
21:00 +12°C° 0.3 mm 5 mps 733 mmHg 91%
22:00 +12°C° 0.3 mm 5 mps 734 mmHg 93%
23:00 +10°C° 0.3 mm 5 mps 734 mmHg 95%

Tomorrow, 19 May, Wednesday

Time Temperature Precipitation Wind Pressure Humidity
00:00 +10°C° 0.3 mm 5 mps 734 mmHg 96%
01:00 +10°C° 0.3 mm 5 mps 735 mmHg 96%
02:00 +10°C° 0.3 mm 5 mps 735 mmHg 96%
03:00 +10°C° 0.1 mm 5 mps 735 mmHg 96%
04:00 +10°C° 0.1 mm 5 mps 735 mmHg 96%
05:00 +9°C° 0.1 mm 5 mps 735 mmHg 96%
06:00 +9°C° 0.6 mm 5 mps 736 mmHg 96%
07:00 +9°C° 0.6 mm 6 mps 736 mmHg 96%
08:00 +9°C° 0.6 mm 6 mps 736 mmHg 96%
09:00 +9°C° 0.3 mm 6 mps 737 mmHg 95%
10:00 +9°C° 0.3 mm 5 mps 737 mmHg 95%
11:00 +9°C° 0.3 mm 5 mps 738 mmHg 95%
12:00 +10°C° 0 mm 5 mps 738 mmHg 90%
13:00 +12°C° 0 mm 5 mps 738 mmHg 86%
14:00 +13°C° 0 mm 5 mps 738 mmHg 82%
15:00 +13°C° 0.1 mm 5 mps 738 mmHg 79%
16:00 +14°C° 0.1 mm 5 mps 738 mmHg 75%
17:00 +14°C° 0.1 mm 4 mps 738 mmHg 72%
18:00 +13°C° 0 mm 4 mps 738 mmHg 75%
19:00 +12°C° 0 mm 3 mps 739 mmHg 79%
20:00 +12°C° 0 mm 2 mps 739 mmHg 83%
21:00 +10°C° 0 mm 2 mps 739 mmHg 85%
22:00 +9°C° 0 mm 2 mps 739 mmHg 88%
23:00 +8°C° 0 mm 2 mps 739 mmHg 90%

Day after tomorrow, 20 May, Thursday

Time Temperature Precipitation Wind Pressure Humidity
00:00 +8°C° 0 mm 2 mps 739 mmHg 91%
01:00 +8°C° 0 mm 2 mps 739 mmHg 92%
02:00 +8°C° 0 mm 2 mps 739 mmHg 93%
03:00 +7°C° 0 mm 2 mps 739 mmHg 94%
04:00 +7°C° 0 mm 2 mps 739 mmHg 95%
05:00 +7°C° 0 mm 2 mps 739 mmHg 96%
06:00 +8°C° 0 mm 3 mps 739 mmHg 91%
07:00 +10°C° 0 mm 3 mps 740 mmHg 87%
08:00 +11°C° 0 mm 4 mps 740 mmHg 82%
09:00 +12°C° 0 mm 4 mps 740 mmHg 77%
10:00 +13°C° 0 mm 4 mps 740 mmHg 72%
11:00 +14°C° 0 mm 5 mps 740 mmHg 68%
12:00 +15°C° 0.1 mm 5 mps 740 mmHg 66%
13:00 +15°C° 0.1 mm 5 mps 740 mmHg 64%
14:00 +16°C° 0.1 mm 5 mps 740 mmHg 62%
15:00 +15°C° 0.1 mm 5 mps 740 mmHg 65%
16:00 +15°C° 0.1 mm 5 mps 740 mmHg 67%
17:00 +15°C° 0.1 mm 5 mps 740 mmHg 69%
18:00 +14°C° 0 mm 4 mps 741 mmHg 72%
19:00 +13°C° 0 mm 4 mps 741 mmHg 75%
20:00 +12°C° 0 mm 3 mps 741 mmHg 78%
21:00 +11°C° 0 mm 3 mps 741 mmHg 78%
22:00 +11°C° 0 mm 3 mps 742 mmHg 78%
23:00 +10°C° 0 mm 3 mps 742 mmHg 78%

21 May, Friday

Time Temperature Precipitation Wind Pressure Humidity
00:00 +10°C° 0 mm 3 mps 742 mmHg 79%
01:00 +10°C° 0 mm 3 mps 742 mmHg 80%
02:00 +9°C° 0 mm 3 mps 742 mmHg 81%
03:00 +9°C° 0 mm 3 mps 743 mmHg 83%
04:00 +8°C° 0 mm 3 mps 743 mmHg 86%
05:00 +8°C° 0 mm 3 mps 743 mmHg 88%
06:00 +9°C° 0 mm 3 mps 744 mmHg 84%
07:00 +11°C° 0 mm 4 mps 744 mmHg 79%
08:00 +12°C° 0 mm 4 mps 744 mmHg 75%
09:00 +13°C° 0 mm 4 mps 744 mmHg 69%
10:00 +16°C° 0 mm 3 mps 744 mmHg 64%
11:00 +17°C° 0 mm 3 mps 744 mmHg 59%
12:00 +18°C° 0 mm 3 mps 744 mmHg 55%
13:00 +18°C° 0 mm 2 mps 744 mmHg 52%
14:00 +19°C° 0 mm 2 mps 744 mmHg 49%
15:00 +19°C° 0 mm 2 mps 744 mmHg 51%
16:00 +19°C° 0 mm 1 mps 743 mmHg 52%
17:00 +19°C° 0 mm 1 mps 743 mmHg 54%
18:00 +18°C° 0 mm 1 mps 743 mmHg 58%
19:00 +15°C° 0 mm 1 mps 743 mmHg 63%
20:00 +14°C° 0 mm 1 mps 743 mmHg 67%
21:00 +13°C° 0 mm 1 mps 743 mmHg 69%
22:00 +12°C° 0 mm 2 mps 743 mmHg 71%
23:00 +12°C° 0 mm 2 mps 743 mmHg 73%

22 May, Saturday

Time Temperature Precipitation Wind Pressure Humidity
00:00 +10°C° 0 mm 3 mps 743 mmHg 77%
01:00 +10°C° 0 mm 3 mps 743 mmHg 81%
02:00 +9°C° 0 mm 3 mps 742 mmHg 85%
03:00 +9°C° 0 mm 3 mps 742 mmHg 86%
04:00 +10°C° 0 mm 3 mps 742 mmHg 86%
05:00 +10°C° 0 mm 3 mps 742 mmHg 87%
06:00 +11°C° 0 mm 3 mps 742 mmHg 84%
07:00 +12°C° 0 mm 4 mps 742 mmHg 81%
08:00 +13°C° 0 mm 4 mps 742 mmHg 77%
09:00 +15°C° 0 mm 4 mps 742 mmHg 72%
10:00 +16°C° 0 mm 5 mps 742 mmHg 67%
11:00 +19°C° 0 mm 5 mps 741 mmHg 62%
12:00 +20°C° 0 mm 5 mps 741 mmHg 60%
13:00 +20°C° 0 mm 5 mps 741 mmHg 58%
14:00 +21°C° 0 mm 6 mps 740 mmHg 55%
15:00 +21°C° 0 mm 5 mps 740 mmHg 59%
16:00 +21°C° 0 mm 5 mps 739 mmHg 62%
17:00 +21°C° 0 mm 5 mps 739 mmHg 65%
18:00 +19°C° 0.1 mm 5 mps 739 mmHg 70%
19:00 +17°C° 0.1 mm 5 mps 739 mmHg 74%
20:00 +16°C° 0.1 mm 5 mps 738 mmHg 79%
21:00 +15°C° 0.1 mm 5 mps 738 mmHg 80%
22:00 +15°C° 0.1 mm 6 mps 738 mmHg 82%
23:00 +15°C° 0.1 mm 6 mps 738 mmHg 83%

23 May, Sunday

Time Temperature Precipitation Wind Pressure Humidity
00:00 +15°C° 0 mm 6 mps 738 mmHg 80%
01:00 +15°C° 0 mm 6 mps 737 mmHg 77%
02:00 +15°C° 0 mm 6 mps 737 mmHg 75%
03:00 +14°C° 0 mm 5 mps 737 mmHg 79%
04:00 +13°C° 0 mm 5 mps 737 mmHg 84%
05:00 +12°C° 0 mm 4 mps 738 mmHg 89%
06:00 +12°C° 0 mm 4 mps 738 mmHg 88%
07:00 +12°C° 0 mm 4 mps 738 mmHg 88%
08:00 +11°C° 0 mm 4 mps 739 mmHg 87%
09:00 +11°C° 0.3 mm 4 mps 739 mmHg 89%
10:00 +10°C° 0.3 mm 3 mps 740 mmHg 90%
11:00 +10°C° 0.3 mm 3 mps 741 mmHg 92%
12:00 +11°C° 0.2 mm 3 mps 741 mmHg 86%
13:00 +12°C° 0.2 mm 3 mps 741 mmHg 81%
14:00 +13°C° 0.2 mm 3 mps 741 mmHg 76%
15:00 +13°C° 0.1 mm 3 mps 741 mmHg 75%
16:00 +13°C° 0.1 mm 4 mps 741 mmHg 74%
17:00 +14°C° 0.1 mm 4 mps 741 mmHg 73%
18:00 +13°C° 0.2 mm 4 mps 741 mmHg 78%
19:00 +12°C° 0.2 mm 3 mps 741 mmHg 82%
20:00 +11°C° 0.2 mm 3 mps 741 mmHg 87%
21:00 +11°C° 0 mm 3 mps 742 mmHg 89%
22:00 +10°C° 0 mm 3 mps 742 mmHg 91%
23:00 +9°C° 0 mm 3 mps 743 mmHg 93%
Show more

We Need Your Consent

Meteoprog and our Service Providers may store and access personal data such as cookies, device identifiers or other similar technologies on your device and process such data to personalise content and ads, as well as provide social media features and to analyse the traffic.

  • Store and/or access information on your device

    Cookies, device identifiers or other information can be stored or accessed on your device for the purposes indicated above.

  • Personalised ads and content, ad and content measurement, audience insights, and products development

    Ads and content can be personalised based on a profile. More data can be added to better personalise ads and content. Ad and content performance can be measured. Insights about the audience who saw the ads and content can be derived. Such data can be used to develop or improve user’s experience, systems and software.

By clicking ‘I Agree’ you will allow the use of indicated cookies, device identifiers, web beacons or other similar technologies. Your settings can be changed in the browser on your device.

For certain purposes, legitimate interests may be relied on, rather than consent. You can read more about this in our Privacy and Cookie Policy.